Regional Weather Roundup
Issued by NWS Albany, NY

Home | Current Version | Previous Version | Graphics & Text | Print | Product List | Glossary Off
Versions: 1 2 3 4 5 6 7 8 9 10 11 12 13 14 15 16 17 18 19 20 21 22 23 24 25 26 27 28 29 30 31 32 33 34 35 36 37 38 39 40 41 42 43 44 45 46 47 48 49 50

000
ASUS41 KALY 290010
RWRALY

NEW YORK STATE HOURLY WEATHER ROUNDUP
NATIONAL WEATHER SERVICE ALBANY NY
800 PM EDT MON JUL 28 2014

NOTE: "FAIR" INDICATES FEW OR NO CLOUDS BELOW 12,000 FEET WITH NO
SIGNIFICANT WEATHER AND/OR NO OBSTRUCTIONS TO VISIBILITY.

NYZ032-033-038>043-046>054-057>066-NYZ062>081-290100-
EAST


CITY           SKY/WX    TMP DP  RH WIND       PRES   REMARKS
ALBANY         MOCLDY    68  60  75 NW21G26   29.56R
GLENS FALLS    LGT RAIN  64  61  90 NW7       29.57R
POUGHKEEPSIE   MOCLDY    72  64  76 SW9       29.56R
NEWBURGH       PTCLDY    68  64  88 W12       29.60R
MONTGOMERY     MOCLDY    70  62  76 W9G18     29.59R
WHITE PLAINS   PTCLDY    68  62  81 W9        29.59S
ISLIP          MOCLDY    80  58  46 SW14      29.56R
NEW YORK CITY  MOCLDY    76  57  51 W14G23    29.60R
CENTRAL PARK   PTCLDY    74  57  55 W9G16     29.63R
$$

NYZ005>009-017-018-044>046-055-056-290100-
CENTRAL


CITY           SKY/WX    TMP DP  RH WIND       PRES   REMARKS
FULTON         CLOUDY    60  56  86 NW7       29.75R
SYRACUSE       CLOUDY    59  57  94 NW8       29.75R
ROME           CLOUDY    61  58  90 NW8       29.71R
ELMIRA         CLOUDY    60  57  89 CALM      29.78R
BINGHAMTON     CLOUDY    58  56  93 NW14G22   29.75R
MONTICELLO     PTCLDY    61  57  88 NW18G25   29.68R
$$

NYZ026>034-041>043-290100-
NORTH


CITY           SKY/WX    TMP DP  RH WIND       PRES   REMARKS
WATERTOWN      CLOUDY    61  55  81 CALM      29.73R
FORT DRUM      NOT AVBL
MASSENA        CLOUDY    62  59  90 NW6       29.68R
SARANAC LAKE   CLOUDY    56  55  97 N8        29.64R FOG
PLATTSBURGH    RAIN      61  59  93 NW14G22   29.59R FOG
$$

NYZ001>004-010>016-019>021-290100-
WEST


CITY           SKY/WX    TMP DP  RH WIND       PRES   REMARKS
NIAGARA FALLS  MOCLDY    63  50  62 NW20      29.83R
BUFFALO        MOCLDY    63  50  62 NW15      29.83R
DUNKIRK        CLOUDY    65  51  60 NW14G23   29.85R
JAMESTOWN      CLOUDY    59  54  82 W6        29.87R
WELLSVILLE     CLOUDY    58  53  84 NW6       29.86R
ROCHESTER      CLOUDY    61  59  93 W7        29.80R
PENN YAN       CLOUDY    59  55  87 NW8       29.80R
$$

             KEY
       WCI = WIND CHILL INDEX
       VSB = VISIBILITY
       HX  = HEAT INDEX
$$



USA.gov is the U.S. government's official web portal to all federal, state and local government web resources and services.